Вернуться в каталог

SL-14 DEB

АктивенPO
NORAD 45278·DEBRIS·🇷🇺 Russia

Запущен Aug 15, 1991 с Plesetsk Cosmodrome

Loading…

Ближайшие Пролёты (ближайшие 24 часа)

TLE

СвежийSource: Space-Track

Эпоха: Sep 14, 2026, 02:39 UTC

1 45278U 91056Q   26257.11053562  .00009859  00000-0  82842-2 0  9999
2 45278  82.5612 298.3375 0141597  44.8280 316.4215 13.83374445327794

Отслеживайте SL-14 DEB в реальном времени с AllMySat

Download on the App Store